Location: *
(52.4831°S, 178.1064°E)
Time: 20:40:01
(UTC+00:00)

Daily predictions for brighter satellites

Satellite Brightness Start Highest point End
(mag) Time Altitude Azimuth Time Altitude Azimuth Time Altitude Azimuth
Cosmos 2058 Rocket 4.4 12:00:01 10° S 12:03:49 33° ESE 12:03:49 33° ESE
Timation 2 Rocket 4.3 12:04:43 42° WNW 12:06:48 62° SW 12:12:59 10° SSE
Meteor 1-21 4.4 12:06:20 62° WNW 12:06:58 67° WSW 12:12:50 10° S
Cosmos 2150 Rocket 4.4 12:08:18 57° W 12:08:53 60° WSW 12:14:15 10° SSE
Helios 1B rocket 4.4 12:09:51 22° WSW 12:09:51 22° WSW 12:12:18 10° SW
SJ 16-02 4.0 12:07:30 10° W 12:10:20 17° SW 12:13:15 10° S
Cosmos 2237 Rocket 3.0 12:07:49 10° SW 12:12:43 40° W 12:12:43 40° W
Cosmos 1269 Rocket 4.2 12:07:51 10° SSW 12:12:46 64° W 12:12:46 64° W
Cosmos 2219 Rocket 4.1 12:10:09 10° WSW 12:13:35 17° W 12:13:35 17° W
In-Cosmos 22 4.4 12:13:55 57° E 12:13:55 57° E 12:19:22 10° SSE
Nadezhda 1 Rocket 3.8 12:12:27 10° SSW 12:18:40 84° W 12:19:09 76° NNW
Meteor 2-21 Rocket 4.3 12:19:10 75° NE 12:19:36 80° E 12:25:47 10° SSE
Cosmos 1809 Rocket 4.4 12:19:27 68° NW 12:20:08 76° WSW 12:26:22 10° S
Cosmos 1726 3.8 12:16:41 10° S 12:18:53 33° S 12:18:53 33° S
SL-08 ROCKET BODY 4.4 12:24:35 69° NE 12:25:02 72° E 12:31:10 10° SSE
Cosmos 1125 Rocket 3.6 12:26:39 69° WSW 12:26:43 69° WSW 12:32:02 10° SSE
Meteor 1-16 Rocket 4.2 12:23:16 10° SSW 12:29:18 76° W 12:29:33 74° NW
Cosmos 2228 3.7 12:24:47 10° S 12:28:24 57° S 12:28:24 57° S
Meteor 2-21 4.4 12:30:18 66° WNW 12:30:57 72° WSW 12:37:08 10° S
Cosmos 1025 Rocket 4.1 12:31:38 40° SW 12:31:38 40° SW 12:35:18 10° S
GEOS 3 Rocket 4.3 12:28:48 31° E 12:31:04 53° SE 12:36:10 10° SW
ASTEX 1 3.7 12:26:39 10° S 12:31:13 62° ESE 12:31:13 62° ESE
Cosmos 2098 Rocket 4.4 12:33:38 30° SSW 12:33:38 30° SSW 12:36:14 10° S
Cosmos 1726 Rocket 4.1 12:29:16 10° S 12:32:58 58° S 12:32:58 58° S
ALOS 2 3.2 12:32:06 10° SSE 12:35:42 54° SE 12:35:42 54° SE
Meteor 2-5 Rocket 4.0 12:44:38 54° ENE 12:44:51 54° E 12:50:22 10° SSE
Cosmos 1606 Rocket 4.4 12:40:55 10° SSW 12:44:24 48° SW 12:44:24 48° SW
Meteor 2-16 Rocket 4.3 12:47:14 70° NW 12:47:54 80° WSW 12:54:12 10° S
Cosmos 2297 Rocket 2.2 12:48:06 67° W 12:48:37 71° SW 12:54:21 10° SSE
Cosmos 1386 Rocket 4.3 12:49:59 69° NW 12:50:35 75° WSW 12:56:43 10° S
USA 238 DEB 4.4 12:50:53 40° NE 12:51:28 40° ENE 12:58:09 10° SE
USA 238 4.4 12:50:59 40° NE 12:51:32 40° ENE 12:58:13 10° SE
Spot 4 4.4 12:50:44 10° S 12:55:31 49° WSW 12:55:33 49° WSW
Cosmos 1707 4.5 12:57:44 28° SW 12:57:44 28° SW 13:00:24 10° S
SL-16 R/B 2.8 12:54:22 10° SW 12:59:04 42° W 12:59:04 42° W
Cosmos 1709 Rocket 3.8 13:01:17 70° N 13:02:04 85° E 13:08:20 10° S
Cosmos 1300 3.9 13:00:22 10° S 13:03:16 41° SSE 13:03:16 41° SSE
NPP 3.7 13:06:12 66° W 13:06:12 66° W 13:11:33 10° SSW
IRS-1D 3.4 13:06:39 82° ESE 13:06:41 82° ESE 13:11:50 10° SSW
CZ-4B R/B 4.1 13:07:31 44° WSW 13:07:31 44° WSW 13:11:27 10° SSW
Cosmos 2227 Rocket 2.5 13:06:09 54° W 13:07:00 60° SW 13:12:43 10° SSE
Cosmos 2082 3.6 13:09:22 76° WNW 13:09:47 83° WSW 13:15:34 10° SSE
Cosmos 1626 3.7 13:11:28 33° SE 13:11:28 33° SE 13:14:01 10° SSE
Terra 4.2 13:09:10 10° SSW 13:11:42 14° SW 13:13:40 11° WSW
Cosmos 1242 Rocket 4.1 13:17:55 33° S 13:17:55 33° S 13:20:02 10° S
IDEFIX/ARIANE 42P 4.4 13:12:44 12° ENE 13:16:35 26° ESE 13:20:55 10° S
Cosmos 967 Rocket 4.4 13:10:23 10° SW 13:16:42 83° SE 13:18:52 44° NE
Cosmos 1603 3.7 13:11:01 10° SSW 13:16:52 87° ESE 13:17:40 68° NE
Cosmos 1943 3.3 13:11:29 10° SSW 13:17:14 73° ESE 13:18:34 53° ENE
CZ-2D R/B 2.5 13:18:23 50° W 13:18:23 50° W 13:23:37 10° SSW
ADEOS II 2.1 13:19:44 66° NE 13:20:23 76° ESE 13:25:44 10° SSW
AQUA 4.2 13:21:33 56° WSW 13:21:33 56° WSW 13:25:47 10° SSW
NOSS 3-3 (A) 3.8 13:15:07 10° SW 13:21:51 69° NW 13:22:19 67° NNW
NOSS 3-3 (C) 3.8 13:15:11 10° SW 13:21:57 70° NW 13:22:26 67° NNW
ARIANE 5 R/B 2.9 13:21:36 52° ENE 13:22:36 63° ESE 13:27:52 10° S
Okean 1-7 Rocket 4.0 13:24:58 59° SW 13:24:58 59° SW 13:28:54 10° S
Cosmos 1271 Rocket 3.8 13:25:37 41° SSW 13:25:37 41° SSW 13:28:22 10° S
YAOGAN 11 4.4 13:20:40 10° S 13:24:55 66° SW 13:24:55 66° SW
Cosmos 1674 4.0 13:28:47 35° SSW 13:28:47 35° SSW 13:31:28 10° S
Cosmos 2219 4.5 13:27:18 26° W 13:29:29 34° SW 13:34:43 10° SSE
CBERS-1 4.2 13:33:33 59° W 13:33:33 59° W 13:38:30 10° SSW
IRS-1C 4.0 13:33:22 75° N 13:33:49 83° WNW 13:39:18 10° SSW
CZ-2D R/B 4.4 13:34:08 43° E 13:34:49 47° ESE 13:39:02 10° S
Cosmos 2251 Rocket 4.1 13:30:42 10° SW 13:35:04 44° W 13:35:04 44° W
Genesis I 4.1 13:36:52 48° SE 13:36:52 48° SE 13:39:47 10° SE
Iridium 4 Rocket 3.2 13:36:26 72° E 13:36:26 72° E 13:40:48 10° S
Cosmos 44 Rocket 4.2 13:37:55 38° WSW 13:39:13 46° SW 13:44:15 10° SE
Meteor 1-24 Rocket 3.5 13:41:10 69° NW 13:41:46 78° WSW 13:47:16 10° S
Cosmos 2058 Rocket 4.4 13:38:05 10° SSW 13:41:04 29° WSW 13:41:04 29° WSW
Cosmos 2181 Rocket 4.2 13:36:59 10° SSW 13:43:04 53° W 13:43:50 50° WNW
Resurs 1-4 Rocket 3.2 13:44:38 31° W 13:44:38 31° W 13:48:53 10° SSW
NOSS 3-2 (A) 4.0 13:43:15 47° NNW 13:45:42 70° NE 13:53:02 10° SE
NOSS 3-2 (C) 4.3 13:44:23 41° N 13:46:46 54° NE 13:53:58 10° SE
ATLAS 5 CENTAUR R/B 3.4 13:42:28 10° SW 13:48:10 40° SSE 13:53:03 10° E
Helios 1A 4.2 13:44:52 10° S 13:48:38 32° WSW 13:48:38 32° WSW
Cosmos 1140 Rocket 4.0 13:44:15 10° SSW 13:49:26 57° ESE 13:52:08 27° NE
Cosmos 2263 Rocket 2.5 13:53:10 49° NNE 13:54:11 56° ENE 13:59:44 10° SE
Cosmos 1340 Rocket 4.4 13:52:19 10° SSW 13:54:35 27° SW 13:54:35 27° SW
Cosmos 1812 Rocket 3.7 13:53:25 10° SSW 13:57:31 65° WSW 13:57:31 65° WSW
Cosmos 407 Rocket 3.5 13:55:04 10° SSW 14:00:28 88° ESE 14:01:58 50° NNE
Cosmos 614 Rocket 3.8 13:57:22 10° SSW 14:02:32 81° WNW 14:03:14 66° N
CZ-4C R/B 4.2 14:01:33 10° SSE 14:05:12 40° E 14:05:22 40° ENE
Cosmos 972 Rocket 4.5 14:03:56 49° N 14:05:31 70° ENE 14:11:57 10° SSE
Aureole 1 Rocket 3.5 14:02:24 10° SSW 14:05:11 46° SW 14:05:11 46° SW
USA 234 4.5 14:02:19 10° ESE 14:07:47 27° NE 14:09:40 24° NNE
SL-4 R/B 3.2 14:10:29 28° E 14:10:29 28° E 14:12:18 10° E
GEOS 3 Rocket 4.0 14:09:53 45° WNW 14:09:53 45° WNW 14:14:17 10° SW
Meteor 2-1 Rocket 4.2 14:05:24 10° SSW 14:11:10 67° W 14:12:16 54° NNW
CENTAUR R/B 3.1 14:08:38 39° N 14:11:19 58° NE 14:17:59 10° SE
ALOS 2 4.5 14:09:17 10° SSW 14:12:28 19° WSW 14:13:05 19° WSW
deb Chang Zheng 4 3.5 14:18:35 69° NNE 14:19:06 89° WNW 14:23:32 10° SSW
ATLAS 3B R/B 3.4 14:16:48 32° N 14:19:51 48° ENE 14:26:57 10° SE
Cosmos 1703 4.4 14:19:36 34° ENE 14:20:27 39° E 14:24:14 10° SSE
SL-14 R/B 4.4 14:23:19 34° WSW 14:23:19 34° WSW 14:26:58 10° S
Cosmos 1602 Rocket 3.9 14:24:05 51° W 14:24:23 52° WSW 14:28:52 10° S
CZ-2C R/B 2.8 14:25:08 74° N 14:25:30 86° WNW 14:29:41 10° SSW
DELTA 2 DEB (DPAF) 4.1 14:22:23 10° SSE 14:26:58 87° ENE 14:27:46 61° N
STARLINK-29 4.3 14:29:26 35° ENE 14:29:26 35° ENE 14:31:44 10° E
Cosmos 1190 Rocket 3.9 14:23:55 10° SSW 14:29:09 66° WNW 14:30:29 48° N
Cosmos 1626 Rocket 4.4 14:32:09 36° W 14:32:26 36° WSW 14:36:37 10° S
Cosmos 2297 Rocket 4.1 14:29:54 12° WSW 14:33:42 22° SSW 14:38:06 10° SSE
Cosmos 1455 2.2 14:33:52 10° SSW 14:37:50 67° W 14:37:51 67° W
FALCON 9 DEB 3.5 14:39:14 56° ENE 14:39:14 56° ENE 14:42:23 10° ESE
STARLINK-52 3.8 14:41:01 46° ENE 14:41:01 46° ENE 14:43:50 10° E
USA 238 DEB 4.0 14:38:19 31° WNW 14:42:11 71° SW 14:49:24 10° SE
UNK 4.2 14:37:33 10° SSE 14:42:15 57° E 14:44:16 32° NNE
USA 238 4.0 14:38:25 31° WNW 14:42:16 71° SW 14:49:29 10° SE
Cosmos 2074 Rocket 4.4 14:40:27 35° WNW 14:42:36 49° WSW 14:48:48 10° S
Cosmos 1626 3.9 14:46:02 21° WSW 14:46:02 21° WSW 14:48:49 10° SSW
STARLINK-60 3.0 14:46:58 81° ENE 14:46:58 81° ENE 14:50:16 10° E
Cosmos 1758 Rocket 3.6 14:46:12 52° NW 14:47:03 64° WSW 14:51:30 10° S
Cosmos 1953 Rocket 3.6 14:45:59 44° N 14:47:23 82° E 14:51:58 10° SSE
Cosmos 676 Rocket 3.9 14:42:20 10° SSW 14:47:37 74° WNW 14:50:56 23° NNE
Cosmos 1842 Rocket 4.3 14:44:48 10° S 14:49:12 54° ESE 14:53:02 13° NNE
Timation 1 Rocket 4.4 14:47:21 37° NW 14:49:49 71° SW 14:55:52 10° SSE
Cosmos 2221 3.6 14:46:19 10° S 14:50:31 44° ESE 14:54:40 10° NE
Cosmos 1818 3.5 14:45:34 10° SW 14:50:58 67° NW 14:56:20 10° NNE
Cosmos 2227 Rocket 4.2 14:48:09 10° WSW 14:52:18 20° SSW 14:56:27 10° SSE
CBERS 1 LM4 rocket 4.3 14:52:34 31° N 14:54:56 74° WNW 14:59:59 10° SSW
Cosmos-2242 3.4 14:50:43 10° SSW 14:55:00 45° W 14:55:31 43° WNW
Cosmos 1825 Rocket 3.7 14:54:32 46° NW 14:55:38 61° WSW 15:00:08 10° S
IDEFIX/ARIANE 42P 2.6 14:53:33 33° N 14:55:49 63° WNW 15:01:05 10° SSW
Cosmos 2218 Rocket 4.4 14:51:06 17° NNE 14:55:52 60° E 15:02:05 10° SSE
MSX 3.8 14:51:41 18° NNE 14:56:12 83° WNW 15:02:07 10° SSW
Cosmos 1356 Rocket 3.4 14:53:03 10° SSW 14:57:07 58° W 14:57:44 51° NW
Cosmos 1371 Rocket 4.0 14:55:44 38° NNW 14:57:51 82° WSW 15:03:11 10° SSE
Lacrosse 5 rocket 3.2 14:58:13 16° NNE 14:59:11 17° NE 15:01:47 10° E
SL-8 Rocket 4.2 14:54:56 21° N 14:59:20 73° E 15:05:45 10° SSE
ADEOS II 3.5 15:00:40 20° W 15:00:40 20° W 15:04:36 10° SW
Cosmos 1943 4.4 14:56:18 10° SW 15:00:19 24° W 15:00:19 24° W
ARIANE 5 R/B 3.7 15:01:57 24° W 15:02:09 24° W 15:06:25 10° SW
Meteor 2-10 Rocket 4.0 14:58:04 10° SSW 15:03:45 49° W 15:06:14 31° NNW
SL-16 R/B 2.6 14:59:58 10° SSE 15:06:17 79° ENE 15:10:31 22° N
Cosmos 2154 Rocket 4.4 15:03:37 30° NW 15:06:34 52° WSW 15:12:52 10° S
Cosmos 1900 4.4 15:07:28 34° NW 15:09:43 79° SW 15:14:56 10° SE
Cosmos 1624 Rocket 4.1 15:13:01 31° NW 15:15:37 70° WSW 15:21:03 10° SSE
Cosmos 2341 Rocket 4.1 15:12:37 25° NNW 15:16:29 70° WSW 15:22:59 10° S
CZ-2C R/B 2.3 15:12:51 10° NNE 15:17:35 85° ESE 15:22:17 10° SSW
Cosmos 1328 4.1 15:16:57 37° NW 15:18:13 54° WSW 15:22:17 10° S
Abrixas rocket 3.5 15:24:19 24° NNE 15:24:19 24° NNE 15:26:07 10° NE
ADEOS 3.6 15:22:45 15° N 15:27:04 59° WNW 15:32:20 10° SSW
SL-24 R/B - RUBIN 2 3.3 15:25:05 10° SW 15:29:25 67° NW 15:33:37 10° NNE
Iridium 96 4.1 15:27:12 10° SSW 15:29:12 41° SW 15:29:12 41° SW
Cosmos 1727 Rocket 4.0 15:24:08 10° S 15:30:36 86° W 15:36:56 10° N
Cosmos 1140 Rocket 4.5 15:26:35 10° SW 15:30:55 27° W 15:32:04 25° WNW
ERS-2 2.1 15:27:35 10° SSE 15:31:22 89° WSW 15:33:26 25° NNW
CZ-4B R/B 3.7 15:27:47 10° NNE 15:31:43 55° ESE 15:35:56 10° S
BREEZE M DEB (TANK) 2.5 15:30:18 26° WNW 15:32:27 49° N 15:34:58 10° E
ATLAS 5 CENTAUR R/B 1.9 15:27:37 10° SW 15:33:19 70° NW 15:38:07 10° NNE
Cosmos 1844 Rocket 2.8 15:32:27 19° NNW 15:36:34 76° ENE 15:42:16 10° SSE
NOSS 3-2 (A) 4.5 15:30:37 15° W 15:37:05 51° SSW 15:43:56 10° SE
Exosat Rocket 4.0 15:32:24 10° SW 15:37:45 41° WNW 15:42:27 10° N
Cosmos 2056 Rocket 3.9 15:34:55 24° WNW 15:37:48 50° WSW 15:42:52 10° SSE
NOSS 3-2 (C) 4.3 15:31:49 19° WNW 15:37:54 61° SW 15:44:58 10° SE
Cosmos 2263 Rocket 3.2 15:34:52 19° W 15:38:23 36° SW 15:43:38 10° SSE
COSMOS 2406 3.4 15:32:52 10° SSW 15:38:44 78° ESE 15:44:31 10° NE
SeaSat 1 3.2 15:36:22 10° SE 15:41:12 49° ENE 15:45:51 11° N
MOZ.5/SAFIR/RUBIN 5/SL-8 4.5 15:39:13 10° S 15:43:37 39° WSW 15:46:12 21° WNW
Okean O Rocket 4.0 15:44:22 10° ENE 15:48:07 27° ESE 15:51:54 10° S
SL-4 R/B 1.6 15:46:06 21° W 15:48:17 61° NNW 15:51:47 10° ENE
Cosmos 2082 Rocket 3.5 15:45:34 10° SSW 15:51:07 44° SE 15:56:35 10° ENE
USA 234 3.4 15:44:56 10° ESE 15:51:35 71° NNE 15:57:00 16° NW
PSLV R/B 4.5 15:49:37 21° NW 15:51:38 30° W 15:55:32 10° SSW
Cosmos 1850 Rocket 4.1 15:46:33 10° SSW 15:51:50 56° WNW 15:57:05 10° N
Cosmos 1484 Rocket 3.2 15:48:53 10° NNE 15:52:52 68° ESE 15:56:50 10° S
SL-08 R/B 3.5 15:49:10 10° SSE 15:54:05 78° ENE 15:58:50 10° N
Cosmos 1833 Rocket 3.2 15:50:23 10° SSW 15:56:03 64° SE 16:01:40 10° NE
Cosmos 1437 3.2 15:57:46 23° NW 15:59:17 40° WSW 16:02:18 10° S
Cosmos 2058 3.1 15:55:57 10° N 16:00:04 73° E 16:04:17 10° SSE
CENTAUR R/B 3.2 15:55:48 14° WNW 16:02:11 55° SSW 16:08:33 10° SE
Cosmos 1869 3.5 15:58:10 10° SSW 16:02:16 56° W 16:06:19 10° N
STARLINK-29 3.1 16:02:24 16° W 16:05:02 82° S 16:08:28 10° E
CZ-4C R/B 3.3 16:02:15 10° SSE 16:05:39 66° ENE 16:09:07 10° N
Cosmos 1400 Rocket 2.8 16:02:03 10° SSW 16:06:02 87° ESE 16:10:00 10° NNE
ALOS 2.6 16:02:39 10° NNE 16:07:21 74° ESE 16:12:08 10° S
BREEZE-M DEB (TANK) 4.3 16:03:15 13° W 16:07:33 74° N 16:28:15 10° E
Cosmos 1844 3.8 16:04:24 13° NW 16:09:40 82° WSW 16:15:35 10° SSE
Cosmos 1076 Rocket 3.5 16:05:48 10° NNW 16:10:06 82° W 16:14:30 10° S
ATLAS 3B R/B 3.2 16:04:03 14° WNW 16:10:33 64° SW 16:17:59 10° SE
CZ-4B DEB 4.5 16:08:39 10° NNE 16:14:09 77° ESE 16:19:46 10° SSW
CZ-4B R/B 4.1 16:09:24 10° NE 16:14:45 55° ESE 16:20:15 10° S
CZ-4B R/B 4.2 16:10:55 10° N 16:15:08 49° W 16:19:13 10° SSW
Cosmos 1420 Rocket 4.4 16:10:57 14° NW 16:15:17 49° WSW 16:20:25 10° SSE
FALCON 9 DEB 3.3 16:12:33 12° W 16:15:55 80° S 16:19:30 10° E
STARLINK-52 3.2 16:14:01 12° W 16:17:09 81° S 16:20:38 10° E
Cosmos 1452 Rocket 3.7 16:12:31 13° NW 16:17:18 60° WSW 16:22:38 10° SSE
METEOR-M 4.2 16:12:06 10° NNE 16:17:31 90° ESE 16:22:59 10° SSW
Meteor PRIRODA 3.6 16:13:55 10° N 16:17:36 71° WNW 16:21:21 10° SSW
Cosmos 2123 Rocket 4.3 16:11:28 10° S 16:17:54 78° ESE 16:24:17 10° NNE
Landsat 5 3.9 16:14:15 10° SSE 16:18:40 74° ENE 16:23:10 10° N
H-2A R/B 2.0 16:15:18 10° SSE 16:19:35 74° WSW 16:23:54 10° NNW
H-2A R/B 2.9 16:16:02 10° N 16:20:14 43° W 16:24:20 10° SSW
Cosmos 1892 2.8 16:18:20 10° N 16:22:15 88° ENE 16:26:15 10° S
Meteor 1-31 Rocket 3.3 16:18:51 10° NNW 16:22:37 40° W 16:26:27 10° SSW
PSLV R/B 3.9 16:18:38 10° NNE 16:22:47 83° WNW 16:27:02 10° SSW
STARLINK-60 3.1 16:19:58 10° W 16:23:25 85° S 16:26:51 10° E
Cosmos 2221 3.7 16:24:20 10° SSW 16:27:51 24° W 16:31:19 10° NW
SJ-12 3.9 16:24:30 10° N 16:28:40 75° WNW 16:32:54 10° SSW
Cosmos 2278 Rocket 3.0 16:25:28 10° N 16:30:58 52° ENE 16:36:33 10° SE
SAR-Lupe-4 3.6 16:29:22 10° SSE 16:33:04 81° WSW 16:36:42 10° NNW
Cosmos 1867 3.6 16:30:23 10° NW 16:35:49 86° SW 16:41:17 10° SE
Helios 1A Rocket 4.2 16:32:02 10° NE 16:35:58 47° ESE 16:39:57 10° S
STARLINK-43 3.5 16:32:21 11° WNW 16:36:01 69° NNE 16:39:48 10° ESE
IDEFIX/ARIANE 42P 4.5 16:35:16 10° W 16:36:31 11° W 16:37:46 10° WSW
Lacrosse 5 rocket 1.2 16:33:54 10° NW 16:37:50 75° NNE 16:41:38 10° ESE
Cosmos 2151 3.1 16:35:51 10° N 16:40:07 84° E 16:44:27 10° SSE
Lacrosse 4 Rocket 4.1 16:37:36 10° NNE 16:40:33 18° ENE 16:43:27 10° ESE
Cosmos 1515 Rocket 4.4 16:41:05 10° S 16:45:36 59° ESE 16:50:04 10° NNE
Cosmos 304 Rocket 4.0 16:41:09 10° NNW 16:45:58 79° ENE 16:50:51 10° SSE
CZ-4B R/B 1.8 16:43:07 10° SSE 16:46:28 66° ENE 16:49:40 10° N
Radarsat Rocket 4.1 16:41:39 10° NNE 16:47:57 87° ESE 16:53:55 10° SSW
H-2A R/B 4.2 16:45:34 10° NE 16:49:11 43° ESE 16:52:53 10° S
SL-16 R/B 3.7 16:44:15 10° S 16:49:20 27° SW 16:54:23 10° WNW
